Find Starlink 5019

NORAD ID: 55407 Int'l Des: 2023-014 Owner: SPXS Country: US Constellation: starlink operational
LEOCIRCULAR

Live Position

Loading 3D Globe...

About Starlink 5019

Description loading...

Upcoming Passes

Passes for default location (London). Set your location on the main map for personalized predictions.

Altitude History

Loading altitude history...

Two-Line Element Set

1 55407U 23014S 26109.81666560 -.00000042 00000-0 42778-5 0 9997
2 55407 69.9987 320.8504 0002732 270.0919 89.9927 14.98329971178211
Epoch: Apr 19, 2026 • Age: 7 hours

Current Status

Altitude 574.4 km
Velocity 7.57 km/s
Sub-Earth Point 1.12°N, 110.58°W
Launch Date Jan 31, 2023
Age 3.2 years
Type internet

Technical Details

Classification Payload
Mass 305.00 kg
Dry Mass 290.00 kg
Total Mass 305.00 kg
Length 0.20 m
Diameter 2.80 m
Span 9.00 m
Shape Box + pan
Manufacturer SPXS
Bus Type Starlink
Phase Status In Orbit
Owner/State SPXS/US

Most Searched